Location: Unspecified
(0.0000°N, 0.0000°E)
Time: 20:03:35
(UTC+00:00)

OBJECT H - Visible Passes

Search period start: 07 September 2024 00:00
Search period end: 17 September 2024 00:00
Orbit: 563 x 587 km, 62.0° (Epoch: 07 September)

Date Brightness Start Highest point End Pass type
(mag) Time Alt. Az. Time Alt. Az. Time Alt. Az.
13 Sep ? 19:25:22 10° S 19:25:24 10° S 19:25:24 10° S visible
14 Sep ? 19:27:52 10° SSW 19:30:04 29° S 19:30:04 29° S visible
15 Sep ? 19:30:43 10° SSW 19:34:52 67° WNW 19:34:59 67° NW visible
16 Sep ? 19:33:56 10° SW 19:37:44 34° WNW 19:40:10 18° N visible
